Погода в Среднем Васюгане

Россия / Томская область     59°13′15″N   78°14′14″E
темп.,
°C
ветер,
м/с
пор.,
м/с
влажн.,
%
обл.,
%
осадки,
мм/ч
давл.,
гПа
погр.,
м
24 июня, чт
чт2401:00+7с237972 0.1 101347
04:00+7с227766 0.0 101236
07:00+10с256774 0.0 1012173
10:00+14с345157 0.1 10111439
13:00+14с4544100 0.1 10111670
16:00+15с3446100 0.0 10101985
19:00+13сз2463100 0.1 1010507
22:00+11ссз267398 0.2 1010182
25 июня, пт
пт2501:00+9ссз2679100 0.2 1009176
04:00+8ссз2891100 0.2 1008293
07:00+8ссз2795100 0.8 1009242
10:00+12ссз247431 0.1 1008550
13:00+15ссз365699 0.2 10091332
16:00+18ссз564586 0.1 10091955
19:00+16с555599 0.1 10101104
22:00+13с477296 0.0 1011592
26 июня, сб
сб2601:00+10зсз2579100 0.0 1011176
04:00+9зсз2479100 0.0 101296
07:00+11з2572100 0.0 1012207
10:00+14зсз3462100 0.0 1011381
13:00+19зсз4545100 0.0 10111505
16:00+21зсз3634100 0.0 10102512
19:00+18юв1356100 0.0 1010324
22:00+15св116593 0.0 101011
27 июня, вс
вс2701:00+14с1257100 0.0 101119
04:00+10с226311 0.0 101125
07:00+11ссв13615 0.0 101299
10:00+17с22400 0.0 1012867
13:00+20ссз24315 0.0 10112287
16:00+22ссз34275 0.0 10112650
19:00+21с342818 0.0 10112628
22:00+15всв24605 0.0 101263
28 июня, пн
пн2801:00+10ссв116312 0.0 101311
04:00+8св11705 0.0 101311
07:00+12всв126458 0.0 101482
10:00+18св2242100 0.0 1015708
13:00+21ссв22325 0.0 10152051
16:00+23с23288 0.0 10142481
19:00+23св1329100 0.0 10142656
22:00+16в226140 0.0 101633